Location: Unspecified
(0.0000°N, 0.0000°E)
Time: 00:13:13
(UTC+00:00)

Courier 1B Rocket - All Passes

Search period start: 16 September 2019 00:00
Search period end: 26 September 2019 00:00
Orbit: 920 x 1202 km, 28.2° (Epoch: 15 September)

Date Brightness Start Highest point End Pass type
(mag) Time Alt. Az. Time Alt. Az. Time Alt. Az.
16 Sep - 01:36:53 10° WNW 01:43:09 64° SSW 01:49:52 10° SE night (unlit)
16 Sep - 03:32:32 10° WSW 03:37:06 19° SSW 03:41:55 10° SSE visible
16 Sep - 09:22:09 10° S 09:24:46 12° SSE 09:27:22 10° SE daylight
16 Sep - 11:12:41 10° SW 11:19:37 34° SSE 11:26:24 10° E daylight
16 Sep - 13:05:48 10° WSW 13:13:37 80° NNW 13:21:01 10° NE daylight
16 Sep - 15:01:38 10° W 15:07:30 25° NNW 15:13:06 10° NNE daylight
16 Sep - 22:43:55 10° NNW 22:48:37 22° NNE 22:53:21 10° ENE night (unlit)
17 Sep - 00:35:51 10° WNW 00:42:07 84° NNE 00:48:43 10° ESE night (unlit)
17 Sep - 02:30:24 10° W 02:35:46 27° SSW 02:41:25 10° SSE visible
17 Sep - 10:12:03 10° SSW 10:18:06 24° SSE 10:24:06 10° ESE daylight
17 Sep - 12:04:27 10° SW 12:12:18 72° SSE 12:19:50 10° ENE daylight
17 Sep - 13:59:12 10° W 14:06:09 36° NNW 14:12:45 10° NE daylight
17 Sep - 15:58:37 10° NW 16:00:33 11° NNW 16:02:28 10° N daylight
17 Sep - 21:44:05 10° N 21:47:23 14° NNE 21:50:39 10° NE night (unlit)
17 Sep - 23:35:04 10° NW 23:41:08 54° NNE 23:47:22 10° ESE night (unlit)
18 Sep - 01:28:43 10° W 01:34:34 40° SSW 01:40:45 10° SE night (unlit)
18 Sep - 03:26:12 10° SW 03:28:50 12° SSW 03:31:31 10° S visible
18 Sep - 09:11:46 10° SSW 09:16:28 17° SSE 09:21:12 10° ESE daylight
18 Sep - 11:03:23 10° SW 11:10:56 50° SSE 11:18:20 10° ENE daylight
18 Sep - 12:57:14 10° WSW 13:04:50 54° NNW 13:12:06 10° NE daylight
18 Sep - 14:54:23 10° WNW 14:58:59 17° NNW 15:03:26 10° NNE daylight
18 Sep - 22:34:30 10° NW 22:40:07 34° NNE 22:45:44 10° E night (unlit)
19 Sep - 00:27:22 10° WNW 00:33:31 61° SSW 00:39:54 10° SE night (unlit)
19 Sep - 02:23:14 10° WSW 02:27:22 18° SSW 02:31:39 10° SSE visible
19 Sep - 08:12:15 10° S 08:14:44 12° SSE 08:17:16 10° SE daylight
19 Sep - 10:02:34 10° SW 10:09:30 34° SSE 10:16:26 10° E daylight
19 Sep - 11:55:37 10° WSW 12:03:30 79° NNW 12:11:09 10° NE daylight
19 Sep - 13:51:24 10° W 13:57:30 25° NNW 14:03:23 10° NNE daylight
19 Sep - 21:34:09 10° NNW 21:38:59 23° NNE 21:43:45 10° ENE night (unlit)
19 Sep - 23:26:15 10° WNW 23:32:31 86° NNE 23:38:52 10° ESE night (unlit)
20 Sep - 01:20:59 10° W 01:26:04 25° SSW 01:31:20 10° SSE night (unlit)
20 Sep - 09:02:02 10° SSW 09:08:00 24° SSE 09:14:03 10° ESE daylight
20 Sep - 10:54:19 10° SW 11:02:08 74° SSE 11:09:54 10° ENE daylight
20 Sep - 12:49:01 10° W 12:56:05 36° NNW 13:02:56 10° NE daylight
20 Sep - 14:48:07 10° NW 14:50:38 12° NNW 14:53:08 10° N daylight
20 Sep - 20:34:07 10° N 20:37:43 15° NNE 20:41:15 10° ENE visible
20 Sep - 22:25:24 10° NW 22:31:32 55° NNE 22:37:38 10° ESE night (unlit)
21 Sep - 00:19:12 10° W 00:24:56 38° SSW 00:30:48 10° SE night (unlit)
21 Sep - 02:17:18 10° SW 02:19:06 11° SSW 02:20:55 10° S night (unlit)
21 Sep - 08:01:53 10° SSW 08:06:25 17° SSE 08:11:04 10° ESE daylight
21 Sep - 09:53:19 10° SW 10:00:46 51° SSE 10:08:19 10° ENE daylight
21 Sep - 11:47:06 10° WSW 11:54:42 53° NNW 12:02:11 10° NE daylight
21 Sep - 13:44:09 10° WNW 13:49:00 17° NNW 13:53:43 10° NNE daylight
21 Sep - 19:35:08 10° N 19:36:16 10° NNE 19:37:24 10° NNE visible
21 Sep - 21:24:43 10° NW 21:30:29 35° NNE 21:36:08 10° E visible
21 Sep - 23:17:45 10° WNW 23:23:54 59° SSW 23:30:05 10° SE night (unlit)
22 Sep - 01:13:54 10° WSW 01:17:41 16° SSW 01:21:32 10° SSE night (unlit)
22 Sep - 07:02:40 10° S 07:04:46 11° SSE 07:06:53 10° SE daylight
22 Sep - 08:52:36 10° SW 08:59:22 35° SSE 09:06:20 10° E daylight
22 Sep - 10:45:33 10° WSW 10:53:20 77° NNW 11:01:09 10° NE daylight
22 Sep - 12:41:15 10° W 12:47:26 25° NNW 12:53:31 10° NNE daylight
22 Sep - 20:24:13 10° NNW 20:29:20 24° NNE 20:34:17 10° ENE visible
22 Sep - 22:16:34 10° WNW 22:22:55 89° NNE 22:29:11 10° ESE night (unlit)
23 Sep - 00:11:30 10° W 00:16:26 24° SSW 00:21:25 10° SSE night (unlit)
23 Sep - 07:52:10 10° SSW 07:57:56 24° SSE 08:03:54 10° ESE daylight
23 Sep - 09:44:19 10° SW 09:51:59 75° SSE 09:59:49 10° ENE daylight
23 Sep - 11:38:56 10° W 11:45:57 36° NNW 11:52:58 10° NE daylight
23 Sep - 13:37:48 10° NW 13:40:39 12° NNW 13:43:28 10° N daylight
23 Sep - 19:23:58 10° NNW 19:28:02 17° NNE 19:31:57 10° ENE visible
23 Sep - 21:15:35 10° NW 21:21:56 57° NNE 21:28:03 10° ESE visible
23 Sep - 23:09:36 10° W 23:15:19 36° SSW 23:21:01 10° SE night (unlit)
24 Sep - 01:08:42 10° SSW 01:09:25 10° SSW 01:10:09 10° SSW night (unlit)
24 Sep - 06:52:11 10° SSW 06:56:26 16° SSE 07:00:49 10° ESE daylight
24 Sep - 08:43:25 10° SW 08:50:39 51° SSE 08:58:10 10° ENE daylight
24 Sep - 10:37:05 10° WSW 10:44:32 52° NNW 10:52:07 10° NE daylight
24 Sep - 12:34:02 10° WNW 12:38:57 18° NNW 12:43:49 10° NNE daylight
24 Sep - 18:24:16 10° N 18:26:33 12° NNE 18:28:46 10° NE visible
24 Sep - 20:14:46 10° NW 20:20:51 37° NNE 20:26:38 10° E visible
24 Sep - 22:08:02 10° WNW 22:14:18 57° SSW 22:20:25 10° SE night (unlit)
25 Sep - 00:04:29 10° WSW 00:08:02 15° SSW 00:11:36 10° S night (unlit)
25 Sep - 05:53:29 10° S 05:54:51 11° SSE 05:56:13 10° SSE daylight
25 Sep - 07:42:47 10° SW 07:49:18 35° SSE 07:56:09 10° E daylight
25 Sep - 09:35:37 10° WSW 09:43:10 75° NNW 09:51:01 10° NE daylight
25 Sep - 11:31:13 10° WNW 11:37:20 25° NNW 11:43:29 10° NNE daylight
25 Sep - 19:14:07 10° NNW 19:19:38 26° NNE 19:24:53 10° E visible
25 Sep - 21:06:43 10° WNW 21:13:18 89° SW 21:19:36 10° ESE visible
25 Sep - 23:01:54 10° WSW 23:06:48 23° SSW 23:11:40 10° SSE night (unlit)
